Weather History for Crookston, MN

Change the Weather History Date:

Saturday, September 14, 2013

  Actual Average Record
Temperature  
Mean Temperature 60 °F -  
Max Temperature 66 °F 68 °F 87 °F (2006)
Min Temperature 55 °F 46 °F 30 °F (2011)
Degree Days  
Heating Degree Days 4    
Growing Degree Days 10 (Base 50)    
Moisture  
Dew Point 53 °F    
Average Humidity 80    
Maximum Humidity 100    
Minimum Humidity 63    
Precipitation  
Precipitation 0.02 in - - ()
Sea Level Pressure  
Sea Level Pressure 29.89 in    
Wind  
Wind Speed 11 mph (SSW)    
Max Wind Speed 17 mph    
Max Gust Speed 25 mph    
Visibility 10 miles    
Events      
Averages and records for this station are not official NWS values.
T = Trace of Precipitation, MM = Missing Value Source: NWS Daily Summary

Daily Weather History Graph

Daily Weather History Graph

Search for Another Location

Airport:

Trip Planner

Search our weather history database for the weather conditions in past years. The results will help you decide how hot, cold, wet, or windy it might be!

Date:

Astronomy

Sep. 14, 2013 Rise Set
Actual Time 7:02 AM CDT 7:40 PM CDT
Civil Twilight 6:31 AM CDT 8:11 PM CDT
Nautical Twilight 5:54 AM CDT 8:48 PM CDT
Astronomical Twilight 5:15 AM CDT 9:26 PM CDT
Moon 4:38 PM CDT (9/14) 1:17 AM CDT (9/14)
Length of Visible Light 13h 39m
Length of Day
12h 37m
Waxing Gibbous, 72% of the Moon is Illuminated
Sep 14
Waxing Gibbous
Sep 19
Full
Sep 26
Last Quarter
Oct 4
New
Oct 11
First Quarter

Hourly Weather History & Observations

Time (CDT) Temp. Dew Point Humidity Pressure Visibility Wind Dir Wind Speed Gust Speed Precip Events Conditions
12:15 AM 60.8 °F 48.2 °F 63% 29.94 in 10.0 mi South 13.8 mph - N/A   Clear
12:35 AM 60.8 °F 48.2 °F 63% 29.93 in 10.0 mi South 13.8 mph - N/A   Clear
12:54 AM 59.0 °F 48.2 °F 67% 29.93 in 10.0 mi South 13.8 mph - N/A   Clear
1:15 AM 59.0 °F 48.2 °F 67% 29.93 in 10.0 mi South 15.0 mph 18.4 mph N/A   Clear
1:34 AM 59.0 °F 48.2 °F 67% 29.92 in 10.0 mi South 11.5 mph 16.1 mph N/A   Clear
1:54 AM 57.2 °F 48.2 °F 72% 29.92 in 10.0 mi South 12.7 mph 17.3 mph N/A   Clear
2:15 AM 57.2 °F 48.2 °F 72% 29.91 in 10.0 mi South 12.7 mph - N/A   Clear
2:34 AM 57.2 °F 48.2 °F 72% 29.91 in 10.0 mi South 15.0 mph - N/A   Clear
2:54 AM 57.2 °F 48.2 °F 72% 29.90 in 10.0 mi South 13.8 mph - N/A   Clear
3:15 AM 57.2 °F 48.2 °F 72% 29.91 in 10.0 mi SSW 12.7 mph - N/A   Clear
3:34 AM 57.2 °F 48.2 °F 72% 29.90 in 10.0 mi South 12.7 mph - N/A   Clear
3:54 AM 57.2 °F 48.2 °F 72% 29.89 in 10.0 mi South 11.5 mph - N/A   Clear
4:15 AM 57.2 °F 48.2 °F 72% 29.89 in 10.0 mi SSW 12.7 mph - N/A   Clear
4:34 AM 57.2 °F 48.2 °F 72% 29.89 in 10.0 mi SSW 13.8 mph - N/A   Clear
4:54 AM 55.4 °F 48.2 °F 77% 29.88 in 10.0 mi South 12.7 mph - N/A   Clear
5:15 AM 55.4 °F 48.2 °F 77% 29.88 in 10.0 mi South 13.8 mph 19.6 mph N/A   Clear
5:34 AM 55.4 °F 50.0 °F 82% 29.88 in 10.0 mi South 12.7 mph 18.4 mph N/A   Clear
5:54 AM 55.4 °F 50.0 °F 82% 29.87 in 10.0 mi South 11.5 mph - N/A   Clear
6:14 AM 55.4 °F 50.0 °F 82% 29.87 in 10.0 mi South 12.7 mph - N/A   Clear
6:34 AM 55.4 °F 50.0 °F 82% 29.87 in 10.0 mi South 11.5 mph - N/A   Clear
6:55 AM 55.4 °F 50.0 °F 82% 29.87 in 10.0 mi South 11.5 mph - N/A   Clear
7:14 AM 55.4 °F 50.0 °F 82% 29.87 in 10.0 mi South 10.4 mph - N/A   Clear
7:34 AM 55.4 °F 50.0 °F 82% 29.87 in 10.0 mi South 10.4 mph - N/A   Clear
7:55 AM 55.4 °F 50.0 °F 82% 29.87 in 10.0 mi South 11.5 mph - N/A   Clear
8:14 AM 55.4 °F 50.0 °F 82% 29.87 in 10.0 mi South 11.5 mph - N/A   Clear
8:34 AM 57.2 °F 51.8 °F 82% 29.87 in 10.0 mi South 10.4 mph - N/A   Clear
8:55 AM 57.2 °F 51.8 °F 82% 29.86 in 10.0 mi South 13.8 mph - N/A   Clear
9:14 AM 59.0 °F 51.8 °F 77% 29.86 in 10.0 mi South 11.5 mph - N/A   Clear
9:35 AM 60.8 °F 51.8 °F 72% 29.86 in 10.0 mi South 11.5 mph - N/A   Clear
9:55 AM 60.8 °F 51.8 °F 72% 29.86 in 10.0 mi SSW 8.1 mph - N/A   Scattered Clouds
10:14 AM 62.6 °F 53.6 °F 72% 29.86 in 10.0 mi SSW 10.4 mph - N/A   Mostly Cloudy
10:35 AM 62.6 °F 53.6 °F 72% 29.86 in 10.0 mi SSW 11.5 mph - N/A   Mostly Cloudy
10:55 AM 64.4 °F 53.6 °F 68% 29.85 in 10.0 mi SSW 15.0 mph - N/A   Scattered Clouds
11:14 AM 64.4 °F 53.6 °F 68% 29.85 in 10.0 mi SSW 12.7 mph - N/A   Scattered Clouds
11:35 AM 64.4 °F 53.6 °F 68% 29.85 in 10.0 mi SSW 11.5 mph - N/A   Scattered Clouds
11:54 AM 64.4 °F 53.6 °F 68% 29.85 in 10.0 mi SSW 15.0 mph 20.7 mph N/A   Mostly Cloudy
12:14 PM 64.4 °F 53.6 °F 68% 29.85 in 10.0 mi SSW 17.3 mph - N/A   Scattered Clouds
12:35 PM 64.4 °F 55.4 °F 73% 29.85 in 10.0 mi SSW 17.3 mph - N/A   Mostly Cloudy
12:54 PM 66.2 °F 55.4 °F 68% 29.86 in 10.0 mi SW 13.8 mph - N/A   Overcast
1:14 PM 64.4 °F 55.4 °F 73% 29.85 in 10.0 mi SSW 15.0 mph - N/A   Overcast
1:35 PM 64.4 °F 55.4 °F 73% 29.84 in 10.0 mi South 17.3 mph 25.3 mph N/A   Mostly Cloudy
1:54 PM 62.6 °F 57.2 °F 82% 29.84 in 10.0 mi SSW 17.3 mph 23.0 mph N/A   Mostly Cloudy
2:14 PM 62.6 °F 57.2 °F 82% 29.84 in 10.0 mi SSW 13.8 mph 19.6 mph N/A   Mostly Cloudy
2:35 PM 62.6 °F 57.2 °F 82% 29.84 in 10.0 mi SSW 11.5 mph - N/A   Mostly Cloudy
2:54 PM 62.6 °F 57.2 °F 82% 29.84 in 10.0 mi SSW 10.4 mph - N/A   Scattered Clouds
3:15 PM 62.6 °F 57.2 °F 82% 29.86 in 10.0 mi South 9.2 mph - N/A   Mostly Cloudy
3:34 PM 62.6 °F 57.2 °F 82% 29.87 in 10.0 mi South 5.8 mph - N/A   Overcast
3:54 PM 62.6 °F 57.2 °F 82% 29.87 in 10.0 mi South 6.9 mph - N/A   Overcast
4:15 PM 62.6 °F 57.2 °F 82% 29.88 in 10.0 mi South 5.8 mph - N/A   Overcast
4:34 PM 60.8 °F 57.2 °F 88% 29.88 in 10.0 mi South 6.9 mph - N/A   Overcast
4:54 PM 60.8 °F 57.2 °F 88% 29.88 in 10.0 mi South 8.1 mph - N/A   Overcast
5:15 PM 60.8 °F 57.2 °F 88% 29.87 in 10.0 mi SSE 8.1 mph - N/A   Overcast
5:34 PM 62.6 °F 57.2 °F 82% 29.88 in 10.0 mi SSE 6.9 mph - N/A   Overcast
5:54 PM 60.8 °F 57.2 °F 88% 29.88 in 10.0 mi South 5.8 mph - N/A   Overcast
6:15 PM 60.8 °F 57.2 °F 88% 29.88 in 10.0 mi South 6.9 mph - N/A   Overcast
6:34 PM 60.8 °F 57.2 °F 88% 29.89 in 10.0 mi South 4.6 mph - N/A   Overcast
6:55 PM 60.8 °F 57.2 °F 88% 29.90 in 10.0 mi South 4.6 mph - N/A   Overcast
7:15 PM 60.8 °F 57.2 °F 88% 29.90 in 10.0 mi SSE 5.8 mph - N/A   Overcast
7:34 PM 60.8 °F 57.2 °F 88% 29.91 in 10.0 mi South 4.6 mph - N/A   Overcast
7:55 PM 60.8 °F 57.2 °F 88% 29.91 in 10.0 mi South 3.5 mph - N/A   Overcast
8:15 PM 60.8 °F 57.2 °F 88% 29.92 in 10.0 mi Calm Calm - N/A   Light Drizzle
8:34 PM 60.8 °F 57.2 °F 88% 29.93 in 10.0 mi Calm Calm - N/A   Overcast
8:55 PM 60.8 °F 57.2 °F 88% 29.94 in 7.0 mi Calm Calm - N/A   Overcast
9:14 PM 60.8 °F 57.2 °F 88% 29.94 in 10.0 mi Calm Calm - N/A   Overcast
9:34 PM 60.8 °F 57.2 °F 88% 29.95 in 10.0 mi Calm Calm - N/A   Overcast
9:55 PM 60.8 °F 57.2 °F 88% 29.95 in 10.0 mi Calm Calm - N/A   Overcast
10:14 PM 60.8 °F 57.2 °F 88% 29.95 in 10.0 mi Calm Calm - N/A   Overcast
10:34 PM 60.8 °F 57.2 °F 88% 29.96 in 4.0 mi NW 4.6 mph - N/A   Light Drizzle
10:55 PM 59.0 °F 57.2 °F 94% 29.97 in 4.0 mi NNW 5.8 mph - 0.01 in   Heavy Drizzle
11:14 PM 59.0 °F 57.2 °F 94% 29.97 in 10.0 mi NNW 3.5 mph - 0.01 in   Overcast
11:34 PM 59.0 °F 57.2 °F 94% 29.97 in 10.0 mi NNW 8.1 mph - 0.01 in   Overcast
11:55 PM 57.2 °F 57.2 °F 100% 29.98 in 10.0 mi NNE 11.5 mph 18.4 mph N/A   Overcast